Weather History for Ravenna, OH

Change the Weather History Date:

Thursday, September 19, 2013

  Actual Average (KCAK) Record (KCAK)
Temperature  
Mean Temperature 66 °F 62 °F  
Max Temperature 74 °F 72 °F 90 °F (1932)
Min Temperature 57 °F 52 °F 39 °F (1956)
Degree Days  
Heating Degree Days 0 5  
Month to date heating degree days 46  
Since 1 July heating degree days 66  
Cooling Degree Days 0 2  
Month to date cooling degree days 54  
Year to date cooling degree days 636  
Growing Degree Days 16 (Base 50)    
Moisture  
Dew Point 62 °F    
Average Humidity 89    
Maximum Humidity 100    
Minimum Humidity 66    
Precipitation  
Precipitation 0.00 in 0.11 in 2.41 in (1948)
Month to date precipitation 2.24  
Year to date precipitation 29.44  
Snow  
Snow 0.00 in 0.00 in - ()
Month to date snowfall 0.0  
Since 1 July snowfall 0.0  
Since 1 September snowfall 0.0  
Snow Depth -    
Sea Level Pressure  
Sea Level Pressure 30.09 in    
Wind  
Wind Speed 3 mph (South)    
Max Wind Speed 7 mph    
Max Gust Speed -    
Visibility 6 miles    
Events      
T = Trace of Precipitation, MM = Missing Value Source: NWS Daily Summary

Daily Weather History Graph

Daily Weather History Graph

Search for Another Location

Airport:

Trip Planner

Search our weather history database for the weather conditions in past years. The results will help you decide how hot, cold, wet, or windy it might be!

Date:

Astronomy

Sep. 19, 2013 Rise Set
Actual Time 7:09 AM EDT 7:26 PM EDT
Civil Twilight 6:42 AM EDT 7:54 PM EDT
Nautical Twilight 6:09 AM EDT 8:26 PM EDT
Astronomical Twilight 5:36 AM EDT 8:59 PM EDT
Moon 7:23 PM EDT (9/19) 7:17 AM EDT (9/19)
Length of Visible Light 13h 12m
Length of Day
12h 17m
Full, 100% of the Moon is Illuminated
Sep 19
Full
Sep 26
Last Quarter
Oct 4
New
Oct 11
First Quarter
Oct 18
Full

Hourly Weather History & Observations

Time (EDT) Temp. Dew Point Humidity Pressure Visibility Wind Dir Wind Speed Gust Speed Precip Events Conditions
12:14 AM 57.2 °F 57.4 °F 100% 30.12 in 7.0 mi SSE 3.5 mph - N/A   Clear
12:34 AM 57.6 °F 57.7 °F 100% 30.13 in 7.0 mi Calm Calm - N/A   Clear
12:55 AM 58.8 °F 59.0 °F 100% 30.13 in 7.0 mi South 3.5 mph - N/A   Mostly Cloudy
1:14 AM 59.9 °F 59.9 °F 100% 30.13 in 5.0 mi SW 3.5 mph - N/A   Overcast
1:34 AM 59.9 °F 60.1 °F 100% 30.13 in 5.0 mi SSW 4.6 mph - N/A   Overcast
1:54 AM 60.1 °F 60.3 °F 100% 30.13 in 5.0 mi SW 3.5 mph - N/A   Overcast
2:14 AM 60.1 °F 60.3 °F 100% 30.13 in 5.0 mi SSW 3.5 mph - N/A   Overcast
2:34 AM 60.4 °F 60.4 °F 100% 30.13 in 5.0 mi SW 4.6 mph - N/A   Overcast
2:55 AM 60.8 °F 60.8 °F 100% 30.12 in 5.0 mi SSW 3.5 mph - N/A   Overcast
3:14 AM 60.8 °F 60.8 °F 100% 30.12 in 5.0 mi Calm Calm - N/A   Overcast
3:34 AM 60.6 °F 60.8 °F 100% 30.12 in 5.0 mi Calm Calm - N/A   Overcast
3:54 AM 60.8 °F 60.8 °F 100% 30.12 in 5.0 mi Calm Calm - N/A   Overcast
4:14 AM 60.8 °F 60.8 °F 100% 30.12 in 5.0 mi Calm Calm - N/A   Overcast
4:34 AM 61.2 °F 61.3 °F 100% 30.11 in 5.0 mi Calm Calm - N/A   Overcast
4:55 AM - - N/A% 30.11 in 5.0 mi SW 3.5 mph - N/A   Overcast
5:14 AM - - N/A% 30.11 in 5.0 mi Calm Calm - N/A   Overcast
5:34 AM 61.7 °F 61.7 °F 100% 30.11 in 4.0 mi Calm Calm - N/A   Overcast
5:54 AM 61.7 °F 61.7 °F 100% 30.11 in 4.0 mi Calm Calm - N/A   Overcast
6:14 AM 61.7 °F 61.9 °F 100% 30.10 in 4.0 mi Calm Calm - N/A   Overcast
6:34 AM 61.7 °F 61.9 °F 100% 30.10 in 4.0 mi Calm Calm - N/A   Overcast
6:54 AM 61.7 °F 61.9 °F 100% 30.11 in 4.0 mi SSE 3.5 mph - N/A   Overcast
7:14 AM 61.9 °F 62.1 °F 100% 30.11 in 4.0 mi Calm Calm - N/A   Overcast
7:34 AM 61.9 °F 62.1 °F 100% 30.12 in 3.0 mi South 3.5 mph - N/A   Overcast
7:54 AM 61.9 °F 62.1 °F 100% 30.13 in 2.0 mi South 3.5 mph - N/A   Overcast
8:14 AM 62.1 °F 62.2 °F 100% 30.13 in 1.8 mi Calm Calm - N/A   Overcast
8:33 AM 62.1 °F 62.4 °F 100% 30.13 in 1.5 mi Calm Calm - N/A   Overcast
8:54 AM 62.4 °F 62.6 °F 100% 30.13 in 1.8 mi Calm Calm - N/A   Overcast
9:14 AM 62.6 °F 62.8 °F 100% 30.13 in 2.5 mi Calm Calm - N/A   Overcast
9:35 AM 62.8 °F 63.0 °F 100% 30.14 in 3.0 mi SSW 3.5 mph - N/A   Overcast
9:54 AM - - N/A% 30.13 in 4.0 mi South 3.5 mph - N/A   Overcast
10:14 AM 63.9 °F 64.0 °F 100% 30.13 in 4.0 mi SSE 3.5 mph - N/A   Overcast
10:34 AM 64.8 °F 64.9 °F 100% 30.13 in 5.0 mi SSW 3.5 mph - N/A   Overcast
10:55 AM 66.9 °F 64.6 °F 92% 30.13 in 5.0 mi SSE 3.5 mph - N/A   Overcast
11:14 AM 68.5 °F 63.9 °F 85% 30.12 in 5.0 mi SSW 4.6 mph - N/A   Haze
11:35 AM 68.7 °F 63.9 °F 84% 30.12 in 7.0 mi SSW 6.9 mph - N/A   Overcast
11:54 AM 68.7 °F 63.3 °F 83% 30.11 in 7.0 mi South 3.5 mph - N/A   Overcast
12:14 PM 68.7 °F 62.8 °F 81% 30.11 in 7.0 mi SSW 5.8 mph - N/A   Overcast
12:34 PM 68.5 °F 62.4 °F 81% 30.11 in 7.0 mi South 5.8 mph - N/A   Overcast
12:55 PM 69.4 °F 62.4 °F 78% 30.10 in 7.0 mi ESE 5.8 mph - N/A   Overcast
1:14 PM 70.7 °F 62.8 °F 76% 30.10 in 7.0 mi Calm Calm - N/A   Overcast
1:34 PM 72.1 °F 63.0 °F 73% 30.10 in 7.0 mi SSE 5.8 mph - N/A   Overcast
1:54 PM 71.1 °F 62.6 °F 75% 30.09 in 7.0 mi SE 6.9 mph - N/A   Overcast
2:14 PM 71.8 °F 62.4 °F 72% 30.09 in 7.0 mi SSE 4.6 mph - N/A   Overcast
2:34 PM 73.9 °F 63.1 °F 69% 30.08 in 10.0 mi South 4.6 mph - N/A   Overcast
2:54 PM 73.2 °F 63.3 °F 71% 30.07 in 10.0 mi South 3.5 mph - N/A   Overcast
3:14 PM 72.9 °F 62.4 °F 70% 30.07 in 7.0 mi SSE 5.8 mph - N/A   Overcast
3:34 PM 74.7 °F 62.6 °F 66% 30.06 in 10.0 mi SSE 5.8 mph - N/A   Overcast
3:54 PM 73.4 °F 62.2 °F 68% 30.06 in 7.0 mi SSE 5.8 mph - N/A   Overcast
4:14 PM 72.7 °F 62.4 °F 70% 30.06 in 7.0 mi SSE 3.5 mph - N/A   Overcast
4:34 PM 71.8 °F 62.2 °F 72% 30.06 in 7.0 mi South 3.5 mph - N/A   Overcast
4:54 PM 71.6 °F 62.1 °F 72% 30.07 in 7.0 mi South 3.5 mph - N/A   Overcast
5:14 PM 71.2 °F 62.1 °F 73% 30.07 in 7.0 mi South 4.6 mph - N/A   Overcast
5:34 PM 71.1 °F 62.1 °F 73% 30.07 in 7.0 mi South 4.6 mph - N/A   Overcast
5:54 PM 70.7 °F 62.2 °F 75% 30.07 in 7.0 mi Calm Calm - N/A   Overcast
6:14 PM 70.0 °F 62.4 °F 77% 30.08 in 7.0 mi SSW 3.5 mph - N/A   Overcast
6:34 PM 69.8 °F 62.6 °F 78% 30.07 in 7.0 mi South 3.5 mph - N/A   Overcast
6:54 PM 69.3 °F 62.8 °F 80% 30.07 in 7.0 mi South 3.5 mph - N/A   Overcast
7:14 PM 68.9 °F 62.8 °F 81% 30.06 in 5.0 mi SSW 4.6 mph - N/A   Haze
7:34 PM 68.2 °F 62.8 °F 83% 30.06 in 7.0 mi Calm Calm - N/A   Overcast
7:55 PM 67.3 °F 63.1 °F 87% 30.05 in 7.0 mi South 3.5 mph - N/A   Overcast
8:14 PM 67.1 °F 63.3 °F 88% 30.04 in 7.0 mi SSE 3.5 mph - N/A   Overcast
8:34 PM 66.9 °F 63.1 °F 88% 30.04 in 5.0 mi Calm Calm - N/A   Overcast
8:54 PM 66.9 °F 63.5 °F 89% 30.03 in 5.0 mi Calm Calm - N/A   Overcast
9:14 PM 66.7 °F 63.5 °F 89% 30.04 in 5.0 mi South 3.5 mph - N/A   Overcast
9:34 PM 66.4 °F 63.7 °F 91% 30.03 in 5.0 mi Calm Calm - N/A   Overcast
9:54 PM 66.2 °F 64.8 °F 95% 30.03 in 5.0 mi Calm Calm - N/A   Overcast
10:14 PM 66.2 °F 64.9 °F 96% 30.03 in 5.0 mi Calm Calm - N/A   Overcast
10:34 PM 66.4 °F 65.1 °F 96% 30.04 in 5.0 mi SSW 3.5 mph - N/A   Overcast
10:55 PM 66.6 °F 64.9 °F 95% 30.04 in 5.0 mi Calm Calm - N/A   Overcast
11:14 PM 66.7 °F 64.9 °F 94% 30.05 in 7.0 mi SSW 4.6 mph - N/A   Overcast
11:34 PM 66.6 °F 64.9 °F 95% 30.04 in 7.0 mi South 3.5 mph - N/A   Overcast
11:54 PM 66.2 °F 65.3 °F 97% 30.04 in 5.0 mi South 3.5 mph - N/A   Scattered Clouds